DW2736 Weather Reports


Display with metric or nautical units.
time (UTC)temp
F
wind
direction
speed
MPH
gust
MPH
rain 1hr
in
rain 24hr
in
rain mn
in
humidity
%
barometer
mb
20170722204035 96 308 1.0 5.0 0.00 0.00 0.00 23 1013.3
20170722203523 96 309 0.0 3.0 0.00 0.00 0.00 24 1013.4
20170722203026 95 309 1.0 4.0 0.00 0.00 0.00 24 1013.6
20170722202533 95 309 0.0 4.0 0.00 0.00 0.00 24 1013.5
20170722202020 94 309 2.0 4.0 0.00 0.00 0.00 25 1013.5
20170722201531 94 309 0.0 6.0 0.00 0.00 0.00 26 1013.6
20170722201018 94 309 2.0 6.0 0.00 0.00 0.00 26 1013.5
20170722200528 95 309 2.0 5.0 0.00 0.00 0.00 26 1013.6
20170722200019 94 309 0.0 3.0 0.00 0.00 0.00 26 1013.6
20170722195529 93 309 0.0 3.0 0.00 0.00 0.00 27 1013.6
20170722195016 93 309 1.0 5.0 0.00 0.00 0.00 27 1013.7
20170722194525 94 309 2.0 5.0 0.00 0.00 0.00 27 1013.7
20170722194031 93 309 0.0 4.0 0.00 0.00 0.00 27 1013.7
20170722193518 93 309 1.0 4.0 0.00 0.00 0.00 28 1013.7
20170722193027 92 309 0.0 6.0 0.00 0.00 0.00 29 1013.8
20170722192514 92 309 0.0 6.0 0.00 0.00 0.00 29 1013.8
20170722192020 92 309 0.0 6.0 0.00 0.00 0.00 30 1013.8
20170722191529 92 309 3.0 6.0 0.00 0.00 0.00 29 1013.8
20170722191023 91 309 0.0 4.0 0.00 0.00 0.00 30 1013.9
20170722190530 91 309 1.0 5.0 0.00 0.00 0.00 30 1013.9
20170722190019 91 309 1.0 5.0 0.00 0.00 0.00 30 1013.9
20170722185527 91 309 1.0 4.0 0.00 0.00 0.00 30 1014.0
20170722185015 90 309 0.0 3.0 0.00 0.00 0.00 30 1014.0
20170722184525 90 309 1.0 4.0 0.00 0.00 0.00 30 1014.0
20170722184032 89 309 2.0 7.0 0.00 0.00 0.00 31 1014.1
20170722183519 89 309 2.0 8.0 0.00 0.00 0.00 30 1014.1
20170722183030 89 309 1.0 8.0 0.00 0.00 0.00 30 1014.1
20170722182522 88 309 1.0 6.0 0.00 0.00 0.00 30 1014.1
20170722182030 88 300 0.0 4.0 0.00 0.00 0.00 29 1014.2
20170722181519 88 300 0.0 4.0 0.00 0.00 0.00 29 1014.2
20170722181027 89 300 1.0 4.0 0.00 0.00 0.00 29 1014.2
20170722180515 88 300 1.0 5.0 0.00 0.00 0.00 30 1014.2
20170722180023 88 300 0.0 3.0 0.00 0.00 0.00 31 1014.2
20170722175531 88 300 0.0 5.0 0.00 0.00 0.00 31 1014.2
20170722175021 88 300 0.0 5.0 0.00 0.00 0.00 31 1014.3
20170722174516 88 300 0.0 4.0 0.00 0.00 0.00 30 1014.3
20170722174024 88 300 1.0 4.0 0.00 0.00 0.00 31 1014.2
20170722173532 87 300 0.0 1.0 0.00 0.00 0.00 32 1014.2
20170722173023 87 300 0.0 5.0 0.00 0.00 0.00 32 1014.3
20170722172530 86 300 0.0 3.0 0.00 0.00 0.00 33 1014.4
20170722172017 86 300 0.0 3.0 0.00 0.00 0.00 34 1014.3
20170722171527 85 300 0.0 3.0 0.00 0.00 0.00 34 1014.3
20170722171015 85 300 0.0 4.0 0.00 0.00 0.00 34 1014.3
20170722170523 85 300 0.0 3.0 0.00 0.00 0.00 34 1014.4
20170722170017 85 300 1.0 3.0 0.00 0.00 0.00 34 1014.4
20170722165526 84 300 0.0 1.0 0.00 0.00 0.00 34 1014.4
20170722165034 84 300 0.0 1.0 0.00 0.00 0.00 36 1014.4
20170722164524 83 300 0.0 1.0 0.00 0.00 0.00 37 1014.4
20170722164032 83 300 0.0 1.0 0.00 0.00 0.00 37 1014.4
20170722163522 82 300 0.0 1.0 0.00 0.00 0.00 39 1014.4
20170722163032 82 300 0.0 0.0 0.00 0.00 0.00 38 1014.4
20170722162521 81 300 0.0 0.0 0.00 0.00 0.00 39 1014.4
20170722162030 81 300 0.0 1.0 0.00 0.00 0.00 41 1014.4
20170722161524 80 300 0.0 2.0 0.00 0.00 0.00 41 1014.4
20170722161032 80 300 0.0 2.0 0.00 0.00 0.00 42 1014.4
20170722160519 79 300 0.0 1.0 0.00 0.00 0.00 43 1014.4
20170722160028 79 300 0.0 1.0 0.00 0.00 0.00 44 1014.3
20170722155516 78 300 0.0 1.0 0.00 0.00 0.00 44 1014.3
20170722155024 78 300 0.0 1.0 0.00 0.00 0.00 44 1014.3
20170722154534 78 300 0.0 1.0 0.00 0.00 0.00 44 1014.3
20170722154021 79 300 0.0 0.0 0.00 0.00 0.00 44 1014.3
20170722153529 79 300 0.0 0.0 0.00 0.00 0.00 44 1014.2
20170722153021 79 300 0.0 0.0 0.00 0.00 0.00 44 1014.1
20170722152530 78 300 0.0 0.0 0.00 0.00 0.00 43 1014.0
20170722152016 77 300 0.0 0.0 0.00 0.00 0.00 44 1014.0
20170722151527 77 300 0.0 0.0 0.00 0.00 0.00 45 1013.9
20170722151034 76 300 0.0 0.0 0.00 0.00 0.00 45 1013.9
20170722150523 76 300 0.0 0.0 0.00 0.00 0.00 45 1013.9
20170722150031 75 300 0.0 0.0 0.00 0.00 0.00 45 1013.9
20170722145520 75 300 0.0 0.0 0.00 0.00 0.00 46 1013.8
20170722145029 74 300 0.0 0.0 0.00 0.00 0.00 47 1013.8
20170722144516 73 300 0.0 0.0 0.00 0.00 0.00 47 1013.7
20170722144023 73 300 0.0 0.0 0.00 0.00 0.00 48 1013.7
20170722143532 72 300 0.0 0.0 0.00 0.00 0.00 48 1013.7
20170722143024 72 300 0.0 0.0 0.00 0.00 0.00 49 1013.7
20170722142533 71 300 0.0 0.0 0.00 0.00 0.00 50 1013.6
20170722142020 70 300 0.0 0.0 0.00 0.00 0.00 50 1013.6
20170722141530 69 300 0.0 0.0 0.00 0.00 0.00 52 1013.6
20170722141019 69 300 0.0 0.0 0.00 0.00 0.00 53 1013.5
20170722140529 68 300 0.0 0.0 0.00 0.00 0.00 54 1013.6
20170722140021 67 300 0.0 0.0 0.00 0.00 0.00 55 1013.5
20170722135530 66 300 0.0 0.0 0.00 0.00 0.00 56 1013.4
20170722135020 66 300 0.0 0.0 0.00 0.00 0.00 57 1013.3
20170722134531 65 300 0.0 0.0 0.00 0.00 0.00 58 1013.3
20170722134018 65 300 0.0 0.0 0.00 0.00 0.00 59 1013.3
20170722133527 65 300 0.0 0.0 0.00 0.00 0.00 59 1013.3
20170722133018 65 300 0.0 0.0 0.00 0.00 0.00 58 1013.2
20170722132527 65 300 0.0 0.0 0.00 0.00 0.00 58 1013.2
20170722132015 65 300 0.0 0.0 0.00 0.00 0.00 58 1013.2
20170722131530 65 300 0.0 0.0 0.00 0.00 0.00 58 1013.1
20170722131019 65 300 0.0 0.0 0.00 0.00 0.00 58 1013.1
20170722130528 65 300 0.0 0.0 0.00 0.00 0.00 57 1013.1
20170722130017 65 300 0.0 0.0 0.00 0.00 0.00 57 1013.1
20170722125526 65 300 0.0 0.0 0.00 0.00 0.00 57 1013.1
20170722125034 66 300 0.0 0.0 0.00 0.00 0.00 56 1013.1
20170722124525 66 300 0.0 0.0 0.00 0.00 0.00 56 1013.0
20170722124033 66 300 0.0 0.0 0.00 0.00 0.00 55 1012.9
20170722123523 67 300 0.0 0.0 0.00 0.00 0.00 55 1012.9
20170722123018 67 300 0.0 0.0 0.00 0.00 0.00 54 1012.9
20170722122528 67 300 0.0 2.0 0.00 0.00 0.00 54 1012.9
20170722122016 67 300 0.0 2.0 0.00 0.00 0.00 54 1012.8
20170722121526 66 300 0.0 0.0 0.00 0.00 0.00 55 1012.8
20170722121016 66 300 0.0 0.0 0.00 0.00 0.00 55 1012.8
20170722120526 66 300 0.0 3.0 0.00 0.00 0.00 55 1012.8
20170722120035 66 300 0.0 3.0 0.00 0.00 0.00 55 1012.8
20170722115524 66 300 0.0 0.0 0.00 0.00 0.00 56 1012.7
20170722115018 66 300 0.0 6.0 0.00 0.00 0.00 56 1012.7
20170722114527 66 300 0.0 6.0 0.00 0.00 0.00 56 1012.8
20170722114016 66 300 0.0 3.0 0.00 0.00 0.00 56 1012.8
20170722113525 65 300 1.0 3.0 0.00 0.00 0.00 57 1012.8
20170722113036 65 300 0.0 0.0 0.00 0.00 0.00 58 1012.8
20170722112525 65 300 0.0 0.0 0.00 0.00 0.00 58 1012.9
20170722112031 66 300 0.0 0.0 0.00 0.00 0.00 57 1012.9
20170722111522 66 300 0.0 0.0 0.00 0.00 0.00 57 1012.9
20170722111031 66 300 0.0 0.0 0.00 0.00 0.00 57 1012.9
20170722110525 66 300 0.0 0.0 0.00 0.00 0.00 57 1013.0
20170722110034 66 300 0.0 0.0 0.00 0.00 0.00 57 1013.0
20170722105523 67 300 0.0 0.0 0.00 0.00 0.00 56 1013.0
20170722105031 67 300 0.0 0.0 0.00 0.00 0.00 56 1013.0
20170722104521 67 300 0.0 0.0 0.00 0.00 0.00 55 1013.0
20170722104029 67 300 0.0 0.0 0.00 0.00 0.00 55 1012.9
20170722103518 68 300 0.0 0.0 0.00 0.00 0.00 54 1012.9
20170722103029 68 300 0.0 0.0 0.00 0.00 0.00 54 1012.9
20170722102518 68 300 0.0 2.0 0.00 0.00 0.00 54 1012.9
20170722102031 68 300 0.0 1.0 0.00 0.00 0.00 54 1012.9
20170722101522 68 300 0.0 0.0 0.00 0.00 0.00 54 1012.9
20170722101030 68 300 0.0 2.0 0.00 0.00 0.00 54 1012.9
20170722100520 68 300 0.0 5.0 0.00 0.00 0.00 54 1012.9
20170722100028 68 300 1.0 5.0 0.00 0.00 0.00 54 1013.0
20170722095518 68 300 0.0 0.0 0.00 0.00 0.00 54 1013.0
20170722095027 68 300 0.0 2.0 0.00 0.00 0.00 54 1013.1
20170722094517 68 300 0.0 3.0 0.00 0.00 0.00 54 1013.1
20170722094025 68 300 1.0 3.0 0.00 0.00 0.00 54 1013.1
20170722093519 68 300 0.0 3.0 0.00 0.00 0.00 54 1013.2
20170722093030 68 300 0.0 1.0 0.00 0.00 0.00 54 1013.2
20170722092517 68 300 0.0 2.0 0.00 0.00 0.00 54 1013.2
20170722092024 69 300 0.0 2.0 0.00 0.00 0.00 54 1013.3
20170722091533 69 300 0.0 2.0 0.00 0.00 0.00 54 1013.3
20170722091023 69 300 0.0 2.0 0.00 0.00 0.00 53 1013.4
20170722090533 69 300 0.0 0.0 0.00 0.00 0.00 53 1013.4
20170722090021 69 300 0.0 2.0 0.00 0.00 0.00 53 1013.4
20170722085531 69 300 0.0 2.0 0.00 0.00 0.00 53 1013.4
20170722085024 69 300 0.0 1.0 0.00 0.00 0.00 53 1013.6
20170722084534 69 300 0.0 1.0 0.00 0.00 0.00 53 1013.5
20170722084021 69 300 0.0 1.0 0.00 0.00 0.00 54 1013.5
20170722083530 69 300 0.0 0.0 0.00 0.00 0.00 54 1013.6
20170722083020 69 300 0.0 0.0 0.00 0.00 0.00 54 1013.7
20170722082529 69 300 0.0 0.0 0.00 0.00 0.00 54 1013.7
20170722082018 69 300 0.0 2.0 0.00 0.00 0.00 54 1013.8
20170722081528 69 300 0.0 3.0 0.00 0.00 0.00 54 1013.8
20170722081020 69 300 0.0 3.0 0.00 0.00 0.00 55 1013.9
20170722080530 69 300 0.0 0.0 0.00 0.00 0.00 55 1013.9
20170722080018 69 300 0.0 1.0 0.00 0.00 0.00 55 1013.9
20170722075526 69 300 0.0 1.0 0.00 0.00 0.00 55 1013.9
20170722075015 69 300 0.0 0.0 0.00 0.00 0.00 55 1013.8
20170722074527 69 300 0.0 1.0 0.00 0.00 0.00 56 1013.8
20170722074033 68 300 0.0 1.0 0.00 0.00 0.00 56 1013.9
20170722073522 68 300 0.0 0.0 0.00 0.00 0.00 57 1014.0
20170722073032 68 300 0.0 0.0 0.00 0.00 0.00 57 1013.9
20170722072526 69 300 0.0 0.0 0.00 0.00 0.00 57 1013.9
20170722072032 69 300 0.0 0.0 0.00 0.00 0.00 57 1013.9
20170722071523 69 300 0.0 0.0 0.00 0.00 0.00 57 1013.9
20170722071032 69 300 0.0 0.0 0.00 0.00 0.00 57 1014.0
20170722070521 69 300 0.0 0.0 0.00 0.00 0.00 57 1014.0
20170722070028 69 300 0.0 0.0 0.00 0.00 0.00 57 1014.0
20170722065516 70 300 0.0 0.0 0.00 0.00 0.00 56 1014.0
20170722065026 70 300 0.0 0.0 0.00 0.00 0.00 55 1014.0
20170722064534 70 300 0.0 0.0 0.00 0.00 0.00 54 1014.0
20170722064027 71 300 0.0 0.0 0.00 0.00 0.00 54 1014.0
20170722063535 71 300 0.0 0.0 0.00 0.00 0.00 53 1014.0
20170722063026 71 300 0.0 0.0 0.00 0.00 0.00 53 1014.0
20170722062534 71 300 0.0 0.0 0.00 0.00 0.00 53 1014.0
20170722062021 71 300 0.0 0.0 0.00 0.00 0.00 52 1014.0
20170722061532 72 300 0.0 0.0 0.00 0.00 0.00 52 1014.1
20170722061020 72 300 0.0 0.0 0.00 0.00 0.00 51 1014.1
20170722060530 72 300 0.0 0.0 0.00 0.00 0.00 51 1014.1
20170722060019 72 300 0.0 0.0 0.00 0.00 0.00 50 1014.2
20170722055532 72 300 0.0 0.0 0.00 0.00 0.00 50 1014.1
20170722055022 73 300 0.0 0.0 0.00 0.00 0.00 50 1014.2
20170722054533 73 300 0.0 0.0 0.00 0.00 0.00 51 1014.3
20170722054019 73 300 0.0 0.0 0.00 0.00 0.00 51 1014.3
20170722053529 73 300 0.0 0.0 0.00 0.00 0.00 51 1014.3
20170722053018 74 300 0.0 0.0 0.00 0.00 0.00 50 1014.3
20170722052526 74 300 0.0 0.0 0.00 0.00 0.00 50 1014.2
20170722052034 74 300 0.0 0.0 0.00 0.00 0.00 49 1014.2
20170722051526 75 300 0.0 0.0 0.00 0.00 0.00 48 1014.2
20170722051017 75 300 0.0 0.0 0.00 0.00 0.00 48 1014.2
20170722050527 75 300 0.0 0.0 0.00 0.00 0.00 47 1014.1
20170722050035 76 300 0.0 0.0 0.00 0.00 0.00 47 1014.1
20170722045518 76 300 0.0 0.0 0.00 0.00 0.00 46 1014.1
20170722045026 76 300 0.0 0.0 0.00 0.00 0.00 46 1014.1
20170722044517 77 300 0.0 0.0 0.00 0.00 0.00 45 1014.0
20170722044023 77 300 0.0 0.0 0.00 0.00 0.00 45 1014.0
20170722043533 78 300 0.0 0.0 0.00 0.00 0.00 44 1013.9
20170722043023 78 300 0.0 0.0 0.00 0.00 0.00 44 1013.9
20170722042516 79 300 0.0 0.0 0.00 0.00 0.00 43 1013.8
20170722042023 79 300 0.0 0.0 0.00 0.00 0.00 42 1013.7
20170722041533 79 300 0.0 0.0 0.00 0.00 0.00 42 1013.7
20170722041021 80 300 0.0 0.0 0.00 0.00 0.00 41 1013.7
20170722040531 81 300 0.0 0.0 0.00 0.00 0.00 40 1013.6
20170722040018 81 300 0.0 0.0 0.00 0.00 0.00 39 1013.5
20170722035526 82 300 0.0 0.0 0.00 0.00 0.00 38 1013.5
20170722035014 83 300 0.0 0.0 0.00 0.00 0.00 37 1013.5
20170722034525 83 300 0.0 1.0 0.00 0.00 0.00 35 1013.5
20170722034016 84 300 0.0 3.0 0.00 0.00 0.00 34 1013.4
20170722033524 85 300 0.0 0.0 0.00 0.00 0.00 30 1013.4
20170722033033 86 300 0.0 0.0 0.00 0.00 0.00 29 1013.3
20170722032521 87 300 0.0 0.0 0.00 0.00 0.00 28 1013.3
20170722032028 87 300 0.0 0.0 0.00 0.00 0.00 28 1013.3
20170722031517 88 300 0.0 0.0 0.00 0.00 0.00 27 1013.2
20170722031020 88 300 0.0 0.0 0.00 0.00 0.00 27 1013.2
20170722030529 89 300 0.0 0.0 0.00 0.00 0.00 27 1013.3
20170722030017 89 300 0.0 0.0 0.00 0.00 0.00 26 1013.2
20170722025529 89 300 0.0 0.0 0.00 0.00 0.00 26 1013.2
20170722025016 90 300 0.0 0.0 0.00 0.00 0.00 25 1013.2
20170722024524 90 300 0.0 0.0 0.00 0.00 0.00 25 1013.2
20170722024030 90 300 0.0 0.0 0.00 0.00 0.00 25 1013.2
20170722023519 90 300 0.0 0.0 0.00 0.00 0.00 25 1013.2
20170722023028 90 300 0.0 0.0 0.00 0.00 0.00 24 1013.2
20170722022515 91 300 0.0 1.0 0.00 0.00 0.00 24 1013.2
20170722022023 91 300 0.0 2.0 0.00 0.00 0.00 24 1013.2
20170722021533 91 300 0.0 3.0 0.00 0.00 0.00 24 1013.1
20170722021025 91 300 1.0 3.0 0.00 0.00 0.00 23 1013.2
20170722020515 92 300 1.0 4.0 0.00 0.00 0.00 23 1013.2
20170722020024 92 300 1.0 4.0 0.00 0.00 0.00 24 1013.2
20170722015532 92 300 0.0 2.0 0.00 0.00 0.00 24 1013.2
20170722015021 92 300 0.0 2.0 0.00 0.00 0.00 23 1013.2
20170722014531 92 300 0.0 4.0 0.00 0.00 0.00 23 1013.2
20170722014019 92 300 1.0 4.0 0.00 0.00 0.00 23 1013.2
20170722013528 92 300 2.0 4.0 0.00 0.00 0.00 23 1013.2
20170722013017 93 300 2.0 5.0 0.00 0.00 0.00 23 1013.2
20170722012530 93 300 1.0 6.0 0.00 0.00 0.00 22 1013.2
20170722012017 93 300 1.0 6.0 0.00 0.00 0.00 22 1013.3
20170722011526 93 300 1.0 5.0 0.00 0.00 0.00 22 1013.2
20170722011034 93 300 2.0 5.0 0.00 0.00 0.00 22 1013.2
20170722010523 93 300 1.0 3.0 0.00 0.00 0.00 22 1013.2
20170722010029 93 300 0.0 5.0 0.00 0.00 0.00 21 1013.2
20170722005518 93 300 2.0 6.0 0.00 0.00 0.00 22 1013.2
20170722005026 94 300 2.0 8.0 0.00 0.00 0.00 22 1013.2
20170722004516 94 300 2.0 6.0 0.00 0.00 0.00 22 1013.2
20170722004027 94 300 1.0 5.0 0.00 0.00 0.00 22 1013.2
20170722003517 94 300 1.0 5.0 0.00 0.00 0.00 21 1013.3
20170722003025 94 300 0.0 7.0 0.00 0.00 0.00 21 1013.3
20170722002533 93 300 1.0 7.0 0.00 0.00 0.00 21 1013.3
20170722002020 94 300 3.0 9.0 0.00 0.00 0.00 21 1013.4
20170722001529 94 300 1.0 6.0 0.00 0.00 0.00 22 1013.4
20170722001018 94 300 3.0 6.0 0.00 0.00 0.00 21 1013.5
20170722000526 94 300 1.0 5.0 0.00 0.00 0.00 20 1013.5
20170722000031 94 300 2.0 4.0 0.00 0.00 0.00 20 1013.5
20170721235523 94 300 0.0 10.0 0.00 0.00 0.00 21 1013.5
20170721235031 94 300 3.0 10.0 0.00 0.00 0.00 22 1013.5
20170721234518 93 290 1.0 6.0 0.00 0.00 0.00 20 1013.6
20170721234027 93 290 1.0 6.0 0.00 0.00 0.00 20 1013.6
20170721233517 94 290 2.0 7.0 0.00 0.00 0.00 20 1013.7
20170721233022 94 290 3.0 6.0 0.00 0.00 0.00 20 1013.7
20170721232532 95 290 2.0 6.0 0.00 0.00 0.00 20 1013.6
20170721232020 94 290 2.0 7.0 0.00 0.00 0.00 21 1013.7
20170721231530 94 290 1.0 7.0 0.00 0.00 0.00 20 1013.7
20170721231022 94 290 0.0 5.0 0.00 0.00 0.00 23 1013.8
20170721230530 94 290 2.0 4.0 0.00 0.00 0.00 22 1013.8
20170721230017 94 290 1.0 7.0 0.00 0.00 0.00 23 1013.8
20170721225525 94 290 3.0 7.0 0.00 0.00 0.00 23 1013.9
20170721225034 94 290 1.0 6.0 0.00 0.00 0.00 23 1013.9
20170721224524 93 290 1.0 8.0 0.00 0.00 0.00 23 1013.9
20170721224032 94 290 3.0 6.0 0.00 0.00 0.00 23 1014.0
20170721223521 93 290 1.0 5.0 0.00 0.00 0.00 23 1014.0
20170721223030 92 290 0.0 6.0 0.00 0.00 0.00 23 1014.0
20170721222522 92 290 3.0 6.0 0.00 0.00 0.00 23 1014.1
20170721222029 92 290 1.0 6.0 0.00 0.00 0.00 24 1014.1
20170721221519 92 290 3.0 7.0 0.00 0.00 0.00 22 1014.2
20170721221028 92 290 1.0 8.0 0.00 0.00 0.00 24 1014.2
20170721220517 92 290 2.0 8.0 0.00 0.00 0.00 25 1014.2
20170721220026 92 290 3.0 8.0 0.00 0.00 0.00 25 1014.2
20170721215534 92 289 2.0 5.0 0.00 0.00 0.00 25 1014.3
20170721215022 92 289 0.0 8.0 0.00 0.00 0.00 24 1014.3
20170721214533 92 289 2.0 8.0 0.00 0.00 0.00 24 1014.4
20170721214023 92 289 2.0 8.0 0.00 0.00 0.00 23 1014.4
20170721213531 92 289 4.0 8.0 0.00 0.00 0.00 24 1014.4
20170721213021 92 289 2.0 5.0 0.00 0.00 0.00 25 1014.4
20170721212530 91 289 3.0 6.0 0.00 0.00 0.00 25 1014.5
20170721212030 91 289 1.0 7.0 0.00 0.00 0.00 26 1014.5
20170721211520 91 288 2.0 8.0 0.00 0.00 0.00 24 1014.7
20170721211028 90 288 1.0 7.0 0.00 0.00 0.00 26 1014.6
20170721210517 90 288 3.0 8.0 0.00 0.00 0.00 26 1014.7
20170721210025 90 288 2.0 8.0 0.00 0.00 0.00 27 1014.7
20170721205517 90 288 3.0 9.0 0.00 0.00 0.00 27 1014.7
20170721205026 90 288 4.0 9.0 0.00 0.00 0.00 27 1014.7
20170721204534 89 281 2.0 6.0 0.00 0.00 0.00 28 1014.7